Time,TemperatureF,DewpointF,PressureIn,WindDirection,WindDirectionDegrees,WindSpeedMPH,WindSpeedGustMPH,Humidity,HourlyPrecipIn,Conditions,Clouds,dailyrainin,SoftwareType,DateUTC
2013-08-02 00:01:00,68.3,67.4,29.78,West,269,0.0,0.0,97,0.00,CLR,CLR,0.00,WeatherDisplay:10.36,2013-08-02 04:01:00,
2013-08-02 00:02:00,68.3,67.4,29.78,West,269,0.0,0.0,97,0.00,CLR,CLR,0.00,WeatherDisplay:10.36,2013-08-02 04:02:00,
2013-08-02 00:03:00,68.3,67.4,29.78,West,269,0.0,0.0,97,0.00,CLR,CLR,0.00,WeatherDisplay:10.36,2013-08-02 04:03:00,
2013-08-02 00:08:00,68.3,67.4,29.78,West,269,0.0,0.0,97,0.00,CLR,CLR,0.00,WeatherDisplay:10.36,2013-08-02 04:08:00,
2013-08-02 00:13:00,68.3,67.4,29.78,West,269,0.0,0.0,97,0.00,CLR,CLR,0.00,WeatherDisplay:10.36,2013-08-02 04:13:00,
2013-08-02 00:17:00,68.1,67.2,29.78,West,269,0.0,0.0,97,0.00,CLR,CLR,0.00,WeatherDisplay:10.36,2013-08-02 04:17:00,
2013-08-02 00:22:00,68.1,67.2,29.78,West,269,0.0,0.0,97,0.00,CLR,CLR,0.00,WeatherDisplay:10.36,2013-08-02 04:22:00,
2013-08-02 00:27:00,68.1,67.2,29.78,West,269,0.0,0.0,97,0.00,CLR,CLR,0.00,WeatherDisplay:10.36,2013-08-02 04:27:00,
2013-08-02 00:33:00,68.1,67.2,29.78,West,269,0.0,0.0,97,0.00,CLR,CLR,0.00,WeatherDisplay:10.36,2013-08-02 04:33:00,
2013-08-02 00:38:00,68.1,67.2,29.78,West,269,0.0,0.0,97,0.00,CLR,CLR,0.00,WeatherDisplay:10.36,2013-08-02 04:38:00,
2013-08-02 00:43:00,68.1,67.2,29.78,West,269,0.0,0.0,97,0.00,CLR,CLR,0.00,WeatherDisplay:10.36,2013-08-02 04:43:00,
2013-08-02 00:48:00,68.1,67.2,29.78,West,269,0.0,0.0,97,0.00,CLR,CLR,0.00,WeatherDisplay:10.36,2013-08-02 04:48:00,
2013-08-02 00:53:00,68.1,67.2,29.78,West,269,0.0,0.0,97,0.00,CLR,CLR,0.00,WeatherDisplay:10.36,2013-08-02 04:53:00,
2013-08-02 00:58:00,68.1,67.2,29.77,West,269,0.0,0.0,97,0.00,CLR,CLR,0.00,WeatherDisplay:10.36,2013-08-02 04:58:00,
2013-08-02 01:03:00,67.9,67.0,29.77,West,269,0.0,0.0,97,0.00,CLR,CLR,0.00,WeatherDisplay:10.36,2013-08-02 05:03:00,
2013-08-02 01:08:00,67.9,67.0,29.77,West,269,0.0,0.0,97,0.00,CLR,CLR,0.00,WeatherDisplay:10.36,2013-08-02 05:08:00,
2013-08-02 01:13:00,67.9,67.0,29.77,West,269,0.0,0.0,97,0.00,CLR,CLR,0.00,WeatherDisplay:10.36,2013-08-02 05:13:00,
2013-08-02 01:18:00,67.8,66.9,29.77,West,269,0.0,0.0,97,0.00,CLR,CLR,0.00,WeatherDisplay:10.36,2013-08-02 05:18:00,
2013-08-02 01:23:00,67.6,66.7,29.77,West,269,0.0,0.0,97,0.00,CLR,CLR,0.00,WeatherDisplay:10.36,2013-08-02 05:23:00,
2013-08-02 01:28:00,67.6,66.7,29.77,West,269,0.0,0.0,97,0.00,CLR,CLR,0.00,WeatherDisplay:10.36,2013-08-02 05:28:00,
2013-08-02 01:34:00,67.6,66.7,29.76,West,269,0.0,0.0,97,0.00,CLR,CLR,0.00,WeatherDisplay:10.36,2013-08-02 05:34:00,
2013-08-02 01:39:00,67.6,66.7,29.75,West,269,0.0,0.0,97,0.00,CLR,CLR,0.00,WeatherDisplay:10.36,2013-08-02 05:39:00,
2013-08-02 01:44:00,67.4,66.5,29.75,West,269,0.0,0.0,97,0.00,CLR,CLR,0.00,WeatherDisplay:10.36,2013-08-02 05:44:00,
2013-08-02 01:49:00,67.4,66.5,29.75,West,269,0.0,0.0,97,0.00,CLR,CLR,0.00,WeatherDisplay:10.36,2013-08-02 05:49:00,
2013-08-02 01:54:00,67.3,66.4,29.75,West,269,0.0,0.0,97,0.00,CLR,CLR,0.00,WeatherDisplay:10.36,2013-08-02 05:54:00,
2013-08-02 01:59:00,67.1,66.2,29.76,West,269,0.0,0.0,97,0.00,CLR,CLR,0.00,WeatherDisplay:10.36,2013-08-02 05:59:00,
2013-08-02 02:04:00,67.1,66.2,29.75,West,269,0.0,0.0,97,0.00,CLR,CLR,0.00,WeatherDisplay:10.36,2013-08-02 06:04:00,
2013-08-02 02:09:00,67.1,66.2,29.75,West,269,0.0,0.0,97,0.00,CLR,CLR,0.00,WeatherDisplay:10.36,2013-08-02 06:09:00,
2013-08-02 02:15:00,67.1,66.2,29.74,West,269,0.0,0.0,97,0.00,CLR,CLR,0.00,WeatherDisplay:10.36,2013-08-02 06:15:00,
2013-08-02 02:20:00,66.9,66.0,29.74,West,269,0.0,0.0,97,0.00,CLR,CLR,0.00,WeatherDisplay:10.36,2013-08-02 06:20:00,
2013-08-02 02:25:00,66.9,66.0,29.74,West,269,0.0,0.0,97,0.00,CLR,CLR,0.00,WeatherDisplay:10.36,2013-08-02 06:25:00,
2013-08-02 02:30:00,66.9,66.0,29.74,West,269,0.0,0.0,97,0.00,CLR,CLR,0.00,WeatherDisplay:10.36,2013-08-02 06:30:00,
2013-08-02 02:35:00,66.8,65.9,29.74,West,269,0.0,0.0,97,0.00,CLR,CLR,0.00,WeatherDisplay:10.36,2013-08-02 06:35:00,
2013-08-02 02:40:00,66.8,65.9,29.74,West,269,0.0,0.0,97,0.00,CLR,CLR,0.00,WeatherDisplay:10.36,2013-08-02 06:40:00,
2013-08-02 02:45:00,66.8,65.9,29.74,West,269,0.0,0.0,97,0.00,CLR,CLR,0.00,WeatherDisplay:10.36,2013-08-02 06:45:00,
2013-08-02 02:50:00,66.6,65.7,29.74,West,269,0.0,0.0,97,0.00,CLR,CLR,0.00,WeatherDisplay:10.36,2013-08-02 06:50:00,
2013-08-02 02:55:00,66.6,65.7,29.74,West,269,0.0,0.0,97,0.00,CLR,CLR,0.00,WeatherDisplay:10.36,2013-08-02 06:55:00,
2013-08-02 03:00:00,66.6,65.7,29.74,West,269,0.0,0.0,97,0.00,CLR,CLR,0.00,WeatherDisplay:10.36,2013-08-02 07:00:00,
2013-08-02 03:06:00,66.6,65.7,29.74,West,269,0.0,0.0,97,0.00,CLR,CLR,0.00,WeatherDisplay:10.36,2013-08-02 07:06:00,
2013-08-02 03:11:00,66.4,65.5,29.74,West,269,0.0,0.0,97,0.00,CLR,CLR,0.00,WeatherDisplay:10.36,2013-08-02 07:11:00,
2013-08-02 03:16:00,66.4,65.5,29.74,West,269,0.0,0.0,97,0.00,CLR,CLR,0.00,WeatherDisplay:10.36,2013-08-02 07:16:00,
2013-08-02 03:21:00,66.4,65.5,29.74,West,269,0.0,0.0,97,0.00,CLR,CLR,0.00,WeatherDisplay:10.36,2013-08-02 07:21:00,
2013-08-02 03:27:00,66.4,65.5,29.74,West,269,0.0,0.0,97,0.00,CLR,CLR,0.00,WeatherDisplay:10.36,2013-08-02 07:27:00,
2013-08-02 03:32:00,66.4,65.5,29.74,West,269,0.0,0.0,97,0.00,CLR,CLR,0.00,WeatherDisplay:10.36,2013-08-02 07:32:00,
2013-08-02 03:37:00,66.3,65.4,29.74,West,269,0.0,0.0,97,0.00,CLR,CLR,0.00,WeatherDisplay:10.36,2013-08-02 07:37:00,
2013-08-02 03:42:00,66.1,65.2,29.74,West,269,0.0,0.0,97,0.00,CLR,CLR,0.00,WeatherDisplay:10.36,2013-08-02 07:42:00,
2013-08-02 03:47:00,66.0,65.1,29.74,West,269,0.0,0.0,97,0.00,CLR,CLR,0.00,WeatherDisplay:10.36,2013-08-02 07:47:00,
2013-08-02 03:52:00,65.8,64.9,29.74,West,269,0.0,0.0,97,0.00,CLR,CLR,0.00,WeatherDisplay:10.36,2013-08-02 07:52:00,
2013-08-02 03:57:00,65.6,64.7,29.75,West,269,0.0,0.0,97,0.00,CLR,CLR,0.00,WeatherDisplay:10.36,2013-08-02 07:57:00,
2013-08-02 04:02:00,65.5,64.6,29.75,West,269,0.0,0.0,97,0.00,CLR,CLR,0.00,WeatherDisplay:10.36,2013-08-02 08:02:00,
2013-08-02 04:07:00,65.3,64.4,29.75,West,269,0.0,0.0,97,0.00,CLR,CLR,0.00,WeatherDisplay:10.36,2013-08-02 08:07:00,
2013-08-02 04:12:00,65.2,64.3,29.75,West,269,0.0,0.0,97,0.00,CLR,CLR,0.00,WeatherDisplay:10.36,2013-08-02 08:12:00,
2013-08-02 04:17:00,65.2,64.3,29.75,West,269,0.0,0.0,97,0.00,CLR,CLR,0.00,WeatherDisplay:10.36,2013-08-02 08:17:00,
2013-08-02 04:22:00,65.0,64.1,29.75,West,269,0.0,0.0,97,0.00,CLR,CLR,0.00,WeatherDisplay:10.36,2013-08-02 08:22:00,
2013-08-02 04:27:00,65.0,64.1,29.75,West,269,0.0,0.0,97,0.00,CLR,CLR,0.00,WeatherDisplay:10.36,2013-08-02 08:27:00,
2013-08-02 04:32:00,64.8,63.9,29.75,West,269,0.0,0.0,97,0.00,CLR,CLR,0.00,WeatherDisplay:10.36,2013-08-02 08:32:00,
2013-08-02 04:37:00,64.8,63.9,29.76,West,269,0.0,0.0,97,0.00,CLR,CLR,0.00,WeatherDisplay:10.36,2013-08-02 08:37:00,
2013-08-02 04:43:00,64.7,63.8,29.76,West,269,0.0,0.0,97,0.00,CLR,CLR,0.00,WeatherDisplay:10.36,2013-08-02 08:43:00,
2013-08-02 04:48:00,64.5,63.6,29.76,West,269,0.0,0.0,97,0.00,CLR,CLR,0.00,WeatherDisplay:10.36,2013-08-02 08:48:00,
2013-08-02 04:53:00,64.5,63.6,29.76,WNW,283,2.3,2.3,97,0.00,CLR,CLR,0.00,WeatherDisplay:10.36,2013-08-02 08:53:00,
2013-08-02 04:58:00,64.3,63.4,29.76,WNW,295,3.5,0.0,97,0.00,CLR,CLR,0.00,WeatherDisplay:10.36,2013-08-02 08:58:00,
2013-08-02 05:03:00,64.3,63.4,29.77,WNW,295,0.0,0.0,97,0.00,CLR,CLR,0.00,WeatherDisplay:10.36,2013-08-02 09:03:00,
2013-08-02 05:08:00,64.3,63.4,29.77,WNW,295,0.0,0.0,97,0.00,CLR,CLR,0.00,WeatherDisplay:10.36,2013-08-02 09:08:00,
2013-08-02 05:13:00,64.2,63.3,29.77,WNW,295,0.0,0.0,97,0.00,CLR,CLR,0.00,WeatherDisplay:10.36,2013-08-02 09:13:00,
2013-08-02 05:18:00,64.2,63.3,29.77,WNW,295,0.0,0.0,97,0.00,CLR,CLR,0.00,WeatherDisplay:10.36,2013-08-02 09:18:00,
2013-08-02 05:23:00,64.0,63.1,29.78,WNW,295,0.0,0.0,97,0.00,CLR,CLR,0.00,WeatherDisplay:10.36,2013-08-02 09:23:00,
2013-08-02 05:28:00,63.9,63.0,29.78,WNW,295,0.0,0.0,97,0.00,CLR,CLR,0.00,WeatherDisplay:10.36,2013-08-02 09:28:00,
2013-08-02 05:33:00,63.7,62.8,29.78,WNW,295,0.0,0.0,97,0.00,CLR,CLR,0.00,WeatherDisplay:10.36,2013-08-02 09:33:00,
2013-08-02 05:39:00,63.4,62.5,29.78,WNW,295,0.0,0.0,97,0.00,CLR,CLR,0.00,WeatherDisplay:10.36,2013-08-02 09:39:00,
2013-08-02 05:44:00,63.2,62.3,29.78,WNW,295,0.0,0.0,97,0.00,CLR,CLR,0.00,WeatherDisplay:10.36,2013-08-02 09:44:00,
2013-08-02 05:49:00,63.2,62.3,29.78,WNW,295,0.0,0.0,97,0.00,CLR,CLR,0.00,WeatherDisplay:10.36,2013-08-02 09:49:00,
2013-08-02 05:54:00,63.1,62.2,29.78,WNW,295,0.0,0.0,97,0.00,CLR,CLR,0.00,WeatherDisplay:10.36,2013-08-02 09:54:00,
2013-08-02 05:59:00,63.1,62.2,29.79,WNW,295,0.0,0.0,97,0.00,CLR,CLR,0.00,WeatherDisplay:10.36,2013-08-02 09:59:00,
2013-08-02 06:04:00,63.1,62.2,29.79,WNW,295,0.0,0.0,97,0.00,CLR,CLR,0.00,WeatherDisplay:10.36,2013-08-02 10:04:00,
2013-08-02 06:10:00,62.9,62.0,29.79,WNW,295,0.0,0.0,97,0.00,CLR,CLR,0.00,WeatherDisplay:10.36,2013-08-02 10:10:00,
2013-08-02 06:15:00,62.9,62.0,29.80,WNW,295,0.0,0.0,97,0.00,CLR,CLR,0.00,WeatherDisplay:10.36,2013-08-02 10:15:00,
2013-08-02 06:20:00,62.7,61.8,29.80,WNW,295,0.0,0.0,97,0.00,CLR,CLR,0.00,WeatherDisplay:10.36,2013-08-02 10:20:00,
2013-08-02 06:25:00,62.7,61.8,29.80,WNW,295,0.0,0.0,97,0.00,CLR,CLR,0.00,WeatherDisplay:10.36,2013-08-02 10:25:00,
2013-08-02 06:30:00,62.7,61.8,29.80,WNW,295,0.0,0.0,97,0.00,CLR,CLR,0.00,WeatherDisplay:10.36,2013-08-02 10:30:00,
2013-08-02 06:35:00,62.6,61.7,29.80,WNW,295,0.0,0.0,97,0.00,CLR,CLR,0.00,WeatherDisplay:10.36,2013-08-02 10:35:00,
2013-08-02 06:40:00,62.6,61.7,29.80,WNW,295,0.0,0.0,97,0.00,CLR,CLR,0.00,WeatherDisplay:10.36,2013-08-02 10:40:00,
2013-08-02 06:45:00,62.7,61.8,29.80,WNW,295,0.0,0.0,97,0.00,CLR,CLR,0.00,WeatherDisplay:10.36,2013-08-02 10:45:00,
2013-08-02 06:50:00,62.7,61.8,29.81,WNW,295,0.0,0.0,97,0.00,CLR,CLR,0.00,WeatherDisplay:10.36,2013-08-02 10:50:00,
2013-08-02 06:55:00,62.9,62.0,29.81,WNW,295,0.0,0.0,97,0.00,CLR,CLR,0.00,WeatherDisplay:10.36,2013-08-02 10:55:00,
2013-08-02 07:00:00,62.9,62.0,29.81,WNW,295,0.0,0.0,97,0.00,CLR,CLR,0.00,WeatherDisplay:10.36,2013-08-02 11:00:00,
2013-08-02 07:05:00,63.1,62.2,29.81,WNW,295,0.0,0.0,97,0.00,CLR,CLR,0.00,WeatherDisplay:10.36,2013-08-02 11:05:00,
2013-08-02 07:10:00,63.2,62.3,29.81,WNW,295,0.0,0.0,97,0.00,CLR,CLR,0.00,WeatherDisplay:10.36,2013-08-02 11:10:00,
2013-08-02 07:16:00,63.2,62.3,29.81,WNW,295,0.0,0.0,97,0.00,CLR,CLR,0.00,WeatherDisplay:10.36,2013-08-02 11:16:00,
2013-08-02 07:21:00,63.4,62.5,29.81,WNW,295,0.0,0.0,97,0.00,CLR,CLR,0.00,WeatherDisplay:10.36,2013-08-02 11:21:00,
2013-08-02 07:26:00,63.4,62.5,29.81,WNW,295,0.0,0.0,97,0.00,CLR,CLR,0.00,WeatherDisplay:10.36,2013-08-02 11:26:00,
2013-08-02 07:31:00,63.5,62.6,29.82,WNW,295,0.0,0.0,97,0.00,CLR,CLR,0.00,WeatherDisplay:10.36,2013-08-02 11:31:00,
2013-08-02 07:36:00,63.7,62.8,29.82,WNW,295,0.0,0.0,97,0.00,CLR,CLR,0.00,WeatherDisplay:10.36,2013-08-02 11:36:00,
2013-08-02 07:42:00,63.9,63.0,29.82,WNW,295,0.0,0.0,97,0.00,CLR,CLR,0.00,WeatherDisplay:10.36,2013-08-02 11:42:00,
2013-08-02 07:47:00,63.9,63.0,29.82,WNW,295,0.0,0.0,97,0.00,CLR,CLR,0.00,WeatherDisplay:10.36,2013-08-02 11:47:00,
2013-08-02 07:52:00,64.0,63.1,29.82,WNW,295,0.0,0.0,97,0.00,CLR,CLR,0.00,WeatherDisplay:10.36,2013-08-02 11:52:00,
2013-08-02 07:57:00,64.0,63.1,29.82,WNW,295,0.0,0.0,97,0.00,CLR,CLR,0.00,WeatherDisplay:10.36,2013-08-02 11:57:00,
2013-08-02 08:02:00,64.2,63.3,29.82,WNW,295,0.0,0.0,97,0.00,CLR,CLR,0.00,WeatherDisplay:10.36,2013-08-02 12:02:00,
2013-08-02 08:07:00,64.2,63.3,29.82,WNW,295,0.0,0.0,97,0.00,CLR,CLR,0.00,WeatherDisplay:10.36,2013-08-02 12:07:00,
2013-08-02 08:12:00,64.2,63.3,29.82,WNW,295,0.0,0.0,97,0.00,CLR,CLR,0.00,WeatherDisplay:10.36,2013-08-02 12:12:00,
2013-08-02 08:17:00,64.2,63.3,29.82,WNW,295,0.0,0.0,97,0.00,CLR,CLR,0.00,WeatherDisplay:10.36,2013-08-02 12:17:00,
2013-08-02 08:23:00,64.3,63.4,29.83,WNW,295,0.0,0.0,97,0.00,CLR,CLR,0.00,WeatherDisplay:10.36,2013-08-02 12:23:00,
2013-08-02 08:27:00,64.5,63.6,29.83,WNW,295,0.0,0.0,97,0.00,CLR,CLR,0.00,WeatherDisplay:10.36,2013-08-02 12:27:00,
2013-08-02 08:33:00,64.5,63.6,29.83,WNW,295,0.0,0.0,97,0.00,CLR,CLR,0.00,WeatherDisplay:10.36,2013-08-02 12:33:00,
2013-08-02 08:38:00,64.8,63.9,29.83,WNW,295,0.0,0.0,97,0.00,CLR,CLR,0.00,WeatherDisplay:10.36,2013-08-02 12:38:00,
2013-08-02 08:43:00,65.0,64.1,29.83,WNW,295,0.0,0.0,97,0.00,CLR,CLR,0.00,WeatherDisplay:10.36,2013-08-02 12:43:00,
2013-08-02 08:48:00,65.2,64.3,29.83,WNW,295,0.0,0.0,97,0.00,CLR,CLR,0.00,WeatherDisplay:10.36,2013-08-02 12:48:00,
2013-08-02 08:53:00,65.3,64.4,29.83,WNW,295,0.0,0.0,97,0.00,CLR,CLR,0.00,WeatherDisplay:10.36,2013-08-02 12:53:00,
2013-08-02 08:59:00,65.6,64.7,29.83,WNW,295,0.0,0.0,97,0.00,CLR,CLR,0.00,WeatherDisplay:10.36,2013-08-02 12:59:00,
2013-08-02 09:04:00,66.0,65.1,29.83,WNW,295,0.0,0.0,97,0.00,CLR,CLR,0.00,WeatherDisplay:10.36,2013-08-02 13:04:00,
2013-08-02 09:09:00,66.3,65.4,29.83,WNW,295,0.0,0.0,97,0.00,CLR,CLR,0.00,WeatherDisplay:10.36,2013-08-02 13:09:00,
2013-08-02 09:14:00,66.6,65.7,29.83,SSW,207,0.0,0.0,97,0.00,CLR,CLR,0.00,WeatherDisplay:10.36,2013-08-02 13:14:00,
2013-08-02 09:19:00,66.6,65.7,29.83,SSW,207,1.0,1.0,97,0.00,CLR,CLR,0.00,WeatherDisplay:10.36,2013-08-02 13:19:00,
2013-08-02 09:24:00,66.8,65.9,29.83,South,190,1.2,0.0,97,0.00,CLR,CLR,0.00,WeatherDisplay:10.36,2013-08-02 13:24:00,
2013-08-02 09:30:00,67.1,66.2,29.83,South,190,0.0,0.0,97,0.00,CLR,CLR,0.00,WeatherDisplay:10.36,2013-08-02 13:30:00,
2013-08-02 09:35:00,67.3,66.4,29.83,SSW,192,1.0,3.0,97,0.00,CLR,CLR,0.00,WeatherDisplay:10.36,2013-08-02 13:35:00,
2013-08-02 09:40:00,67.4,66.6,29.83,SSW,200,0.0,4.0,97,0.00,CLR,CLR,0.00,WeatherDisplay:10.36,2013-08-02 13:40:00,
2013-08-02 09:45:00,67.6,66.4,29.83,South,176,0.0,0.0,96,0.00,CLR,CLR,0.00,WeatherDisplay:10.36,2013-08-02 13:45:00,
2013-08-02 09:50:00,67.8,66.6,29.83,South,176,0.0,0.0,96,0.00,CLR,CLR,0.00,WeatherDisplay:10.36,2013-08-02 13:50:00,
2013-08-02 09:55:00,67.9,66.4,29.83,South,169,0.0,0.0,95,0.00,CLR,CLR,0.00,WeatherDisplay:10.36,2013-08-02 13:55:00,
2013-08-02 10:00:00,68.1,66.6,29.84,South,169,0.0,0.0,95,0.00,CLR,CLR,0.00,WeatherDisplay:10.36,2013-08-02 14:00:00,
2013-08-02 10:06:00,68.4,66.6,29.84,South,169,0.0,0.0,94,0.00,CLR,CLR,0.00,WeatherDisplay:10.36,2013-08-02 14:06:00,
2013-08-02 10:11:00,68.6,65.9,29.84,South,169,0.0,0.0,91,0.00,CLR,CLR,0.00,WeatherDisplay:10.36,2013-08-02 14:11:00,
2013-08-02 10:16:00,69.3,65.3,29.84,SSW,205,0.0,0.0,87,0.00,CLR,CLR,0.00,WeatherDisplay:10.36,2013-08-02 14:16:00,
2013-08-02 10:21:00,69.8,65.1,29.84,SSW,205,0.0,0.0,85,0.00,CLR,CLR,0.00,WeatherDisplay:10.36,2013-08-02 14:21:00,
2013-08-02 10:26:00,70.3,63.5,29.84,WNW,301,1.0,0.0,79,0.00,CLR,CLR,0.00,WeatherDisplay:10.36,2013-08-02 14:26:00,
2013-08-02 10:32:00,70.8,63.6,29.84,NW,310,1.0,0.0,78,0.00,CLR,CLR,0.00,WeatherDisplay:10.36,2013-08-02 14:32:00,
2013-08-02 10:37:00,71.5,63.2,29.84,SW,226,0.0,0.0,75,0.00,CLR,CLR,0.00,WeatherDisplay:10.36,2013-08-02 14:37:00,
2013-08-02 10:42:00,72.0,62.9,29.84,SSW,193,1.2,1.2,73,0.00,CLR,CLR,0.00,WeatherDisplay:10.36,2013-08-02 14:42:00,
2013-08-02 10:47:00,72.7,62.8,29.84,SSW,212,1.0,1.0,71,0.00,CLR,CLR,0.00,WeatherDisplay:10.36,2013-08-02 14:47:00,
2013-08-02 10:52:00,73.0,63.0,29.84,SSW,212,1.0,0.0,71,0.00,CLR,CLR,0.00,WeatherDisplay:10.36,2013-08-02 14:52:00,
2013-08-02 10:57:00,73.3,62.1,29.84,SW,214,1.2,0.0,68,0.00,CLR,CLR,0.00,WeatherDisplay:10.36,2013-08-02 14:57:00,
2013-08-02 11:03:00,73.7,63.3,29.84,SSW,212,1.0,1.0,70,0.00,CLR,CLR,0.00,WeatherDisplay:10.36,2013-08-02 15:03:00,
2013-08-02 11:08:00,74.0,62.3,29.85,WSW,252,1.2,1.2,67,0.00,CLR,CLR,0.00,WeatherDisplay:10.36,2013-08-02 15:08:00,
2013-08-02 11:13:00,74.6,62.9,29.85,SW,223,2.3,2.3,67,0.00,CLR,CLR,0.00,WeatherDisplay:10.36,2013-08-02 15:13:00,
2013-08-02 11:18:00,74.9,61.9,29.84,South,182,0.0,0.0,64,0.00,CLR,CLR,0.00,WeatherDisplay:10.36,2013-08-02 15:18:00,
2013-08-02 11:23:00,75.1,62.1,29.84,South,178,2.3,2.3,64,0.00,CLR,CLR,0.00,WeatherDisplay:10.36,2013-08-02 15:23:00,
2013-08-02 11:28:00,75.6,61.7,29.84,SW,224,1.2,0.0,62,0.00,CLR,CLR,0.00,WeatherDisplay:10.36,2013-08-02 15:28:00,
2013-08-02 11:33:00,76.0,61.6,29.84,SW,229,5.8,5.8,61,0.00,CLR,CLR,0.00,WeatherDisplay:10.36,2013-08-02 15:33:00,
2013-08-02 11:38:00,76.1,61.2,29.84,SSW,200,2.0,2.0,60,0.00,CLR,CLR,0.00,WeatherDisplay:10.36,2013-08-02 15:38:00,
2013-08-02 11:43:00,76.5,60.1,29.84,SSW,207,3.5,0.0,57,0.00,CLR,CLR,0.00,WeatherDisplay:10.36,2013-08-02 15:43:00,
2013-08-02 11:48:00,76.8,61.4,29.84,SW,225,0.0,0.0,59,0.00,CLR,CLR,0.00,WeatherDisplay:10.36,2013-08-02 15:48:00,
2013-08-02 11:54:00,77.0,61.1,29.84,SW,226,1.2,0.0,58,0.00,CLR,CLR,0.00,WeatherDisplay:10.36,2013-08-02 15:54:00,
2013-08-02 11:59:00,77.0,61.1,29.84,SW,216,1.2,1.2,58,0.00,CLR,CLR,0.00,WeatherDisplay:10.36,2013-08-02 15:59:00,
2013-08-02 12:03:00,77.4,61.0,29.84,WNW,301,2.3,2.3,57,0.00,CLR,CLR,0.00,WeatherDisplay:10.36,2013-08-02 16:03:00,
2013-08-02 12:09:00,77.4,61.0,29.84,SSW,195,0.0,0.0,57,0.00,CLR,CLR,0.00,WeatherDisplay:10.36,2013-08-02 16:09:00,
2013-08-02 12:14:00,77.6,61.7,29.84,SW,216,2.3,2.3,58,0.00,CLR,CLR,0.00,WeatherDisplay:10.36,2013-08-02 16:14:00,
2013-08-02 12:19:00,77.9,60.9,29.84,SW,214,0.0,0.0,56,0.00,CLR,CLR,0.00,WeatherDisplay:10.36,2013-08-02 16:19:00,
2013-08-02 12:24:00,78.1,61.6,29.84,SW,214,1.2,0.0,57,0.00,CLR,CLR,0.00,WeatherDisplay:10.36,2013-08-02 16:24:00,
2013-08-02 12:29:00,77.9,61.9,29.84,SW,219,0.0,0.0,58,0.00,CLR,CLR,0.00,WeatherDisplay:10.36,2013-08-02 16:29:00,
2013-08-02 12:35:00,77.9,60.4,29.84,SSW,193,3.5,3.5,55,0.00,CLR,CLR,0.00,WeatherDisplay:10.36,2013-08-02 16:35:00,
2013-08-02 12:40:00,77.9,60.9,29.84,South,187,3.5,3.5,56,0.00,CLR,CLR,0.00,WeatherDisplay:10.36,2013-08-02 16:40:00,
2013-08-02 12:45:00,78.6,61.6,29.83,SSW,213,0.0,3.0,56,0.00,CLR,CLR,0.00,WeatherDisplay:10.36,2013-08-02 16:45:00,
2013-08-02 12:50:00,79.0,60.9,29.83,WSW,249,1.2,1.2,54,0.00,CLR,CLR,0.00,WeatherDisplay:10.36,2013-08-02 16:50:00,
2013-08-02 12:55:00,79.6,61.5,29.83,West,259,4.6,4.6,54,0.00,CLR,CLR,0.00,WeatherDisplay:10.36,2013-08-02 16:55:00,
2013-08-02 13:00:00,79.9,60.7,29.83,SW,235,3.5,3.5,52,0.00,CLR,CLR,0.00,WeatherDisplay:10.36,2013-08-02 17:00:00,
2013-08-02 13:05:00,80.5,60.1,29.83,South,169,3.0,3.0,50,0.00,CLR,CLR,0.00,WeatherDisplay:10.36,2013-08-02 17:05:00,
2013-08-02 13:10:00,80.9,59.4,29.83,SSE,162,3.5,3.5,48,0.00,CLR,CLR,0.00,WeatherDisplay:10.36,2013-08-02 17:10:00,
2013-08-02 13:15:00,81.2,61.4,29.82,SW,217,4.6,4.6,51,0.00,CLR,CLR,0.00,WeatherDisplay:10.36,2013-08-02 17:15:00,
2013-08-02 13:21:00,81.6,60.0,29.82,WSW,252,5.0,5.0,48,0.00,CLR,CLR,0.00,WeatherDisplay:10.36,2013-08-02 17:21:00,
2013-08-02 13:26:00,81.6,59.4,29.82,SW,226,0.0,0.0,47,0.00,CLR,CLR,0.00,WeatherDisplay:10.36,2013-08-02 17:26:00,
2013-08-02 13:32:00,81.8,61.3,29.82,West,263,0.0,0.0,50,0.00,CLR,CLR,0.00,WeatherDisplay:10.36,2013-08-02 17:32:00,
2013-08-02 13:37:00,82.2,60.6,29.82,WSW,255,3.5,3.5,48,0.00,CLR,CLR,0.00,WeatherDisplay:10.36,2013-08-02 17:37:00,
2013-08-02 13:42:00,82.2,61.1,29.82,West,260,3.5,3.5,49,0.00,CLR,CLR,0.00,WeatherDisplay:10.36,2013-08-02 17:42:00,
2013-08-02 13:47:00,82.2,60.0,29.82,SW,221,4.6,4.6,47,0.00,CLR,CLR,0.00,WeatherDisplay:10.36,2013-08-02 17:47:00,
2013-08-02 13:52:00,82.2,60.0,29.82,West,267,1.2,1.2,47,0.00,CLR,CLR,0.00,WeatherDisplay:10.36,2013-08-02 17:52:00,
2013-08-02 13:57:00,82.0,60.4,29.83,SW,223,2.3,2.3,48,0.00,CLR,CLR,0.00,WeatherDisplay:10.36,2013-08-02 17:57:00,
2013-08-02 14:02:00,82.0,59.2,29.83,WSW,250,4.6,0.0,46,0.00,CLR,CLR,0.00,WeatherDisplay:10.36,2013-08-02 18:02:00,
2013-08-02 14:07:00,82.4,60.7,29.82,SW,221,1.2,0.0,48,0.00,CLR,CLR,0.00,WeatherDisplay:10.36,2013-08-02 18:07:00,
2013-08-02 14:13:00,82.4,60.7,29.82,WSW,258,4.6,4.6,48,0.00,CLR,CLR,0.00,WeatherDisplay:10.36,2013-08-02 18:13:00,
2013-08-02 14:18:00,82.6,60.9,29.82,WSW,245,2.3,2.3,48,0.00,CLR,CLR,0.00,WeatherDisplay:10.36,2013-08-02 18:18:00,
2013-08-02 14:23:00,83.0,60.1,29.82,South,172,3.5,3.5,46,0.00,CLR,CLR,0.00,WeatherDisplay:10.36,2013-08-02 18:23:00,
2013-08-02 14:28:00,83.0,60.1,29.82,SSE,156,4.6,4.6,46,0.00,CLR,CLR,0.00,WeatherDisplay:10.36,2013-08-02 18:28:00,
2013-08-02 14:34:00,82.8,59.9,29.82,SW,219,3.5,3.5,46,0.00,CLR,CLR,0.00,WeatherDisplay:10.36,2013-08-02 18:34:00,
2013-08-02 14:39:00,83.4,60.4,29.82,WSW,243,4.6,4.6,46,0.00,CLR,CLR,0.00,WeatherDisplay:10.36,2013-08-02 18:39:00,
2013-08-02 14:44:00,84.0,61.0,29.82,SSW,203,3.5,3.5,46,0.00,CLR,CLR,0.00,WeatherDisplay:10.36,2013-08-02 18:44:00,
2013-08-02 14:49:00,83.8,59.6,29.81,SW,235,4.0,4.0,44,0.00,CLR,CLR,0.00,WeatherDisplay:10.36,2013-08-02 18:49:00,
2013-08-02 14:54:00,83.8,60.2,29.81,SSW,208,4.0,4.0,45,0.00,CLR,CLR,0.00,WeatherDisplay:10.36,2013-08-02 18:54:00,
2013-08-02 15:00:00,83.8,60.2,29.81,WSW,257,5.0,5.0,45,0.00,CLR,CLR,0.00,WeatherDisplay:10.36,2013-08-02 19:00:00,
2013-08-02 15:05:00,83.9,60.9,29.81,SW,234,2.0,6.0,46,0.00,CLR,CLR,0.00,WeatherDisplay:10.36,2013-08-02 19:05:00,
2013-08-02 15:10:00,84.1,59.8,29.81,South,187,9.2,9.2,44,0.00,CLR,CLR,0.00,WeatherDisplay:10.36,2013-08-02 19:10:00,
2013-08-02 15:15:00,83.8,57.6,29.81,SSW,203,3.5,3.5,41,0.00,CLR,CLR,0.00,WeatherDisplay:10.36,2013-08-02 19:15:00,
2013-08-02 15:20:00,84.0,57.8,29.81,SW,217,4.0,4.0,41,0.00,CLR,CLR,0.00,WeatherDisplay:10.36,2013-08-02 19:20:00,
2013-08-02 15:25:00,84.1,59.2,29.81,WSW,251,2.3,2.3,43,0.00,CLR,CLR,0.00,WeatherDisplay:10.36,2013-08-02 19:25:00,
2013-08-02 15:31:00,84.3,55.9,29.81,SSE,157,2.3,2.3,38,0.00,CLR,CLR,0.00,WeatherDisplay:10.36,2013-08-02 19:31:00,
2013-08-02 15:36:00,84.3,57.3,29.81,West,278,2.3,2.3,40,0.00,CLR,CLR,0.00,WeatherDisplay:10.36,2013-08-02 19:36:00,
2013-08-02 15:41:00,84.5,58.2,29.80,WSW,239,5.8,5.8,41,0.00,CLR,CLR,0.00,WeatherDisplay:10.36,2013-08-02 19:41:00,
2013-08-02 15:46:00,84.7,60.4,29.81,WSW,247,0.0,0.0,44,0.00,CLR,CLR,0.00,WeatherDisplay:10.36,2013-08-02 19:46:00,
2013-08-02 15:51:00,84.7,58.4,29.81,West,261,9.2,9.2,41,0.00,CLR,CLR,0.00,WeatherDisplay:10.36,2013-08-02 19:51:00,
2013-08-02 15:56:00,84.7,57.7,29.81,WSW,242,3.5,3.5,40,0.00,CLR,CLR,0.00,WeatherDisplay:10.36,2013-08-02 19:56:00,
2013-08-02 16:02:00,84.0,58.4,29.80,SSW,207,2.3,2.3,42,0.00,CLR,CLR,0.00,WeatherDisplay:10.36,2013-08-02 20:02:00,
2013-08-02 16:07:00,83.6,58.7,29.80,South,172,3.5,3.5,43,0.00,CLR,CLR,0.00,WeatherDisplay:10.36,2013-08-02 20:07:00,
2013-08-02 16:12:00,83.6,58.7,29.80,SW,231,3.0,3.0,43,0.00,CLR,CLR,0.00,WeatherDisplay:10.36,2013-08-02 20:12:00,
2013-08-02 16:17:00,83.4,58.6,29.80,SSW,201,2.3,2.3,43,0.00,CLR,CLR,0.00,WeatherDisplay:10.36,2013-08-02 20:17:00,
2013-08-02 16:22:00,83.6,58.7,29.80,SSW,207,2.3,2.3,43,0.00,CLR,CLR,0.00,WeatherDisplay:10.36,2013-08-02 20:22:00,
2013-08-02 16:27:00,83.4,58.6,29.81,South,184,1.2,0.0,43,0.00,CLR,CLR,0.00,WeatherDisplay:10.36,2013-08-02 20:27:00,
2013-08-02 16:32:00,83.4,58.6,29.81,WSW,256,6.9,6.9,43,0.00,CLR,CLR,0.00,WeatherDisplay:10.36,2013-08-02 20:32:00,
2013-08-02 16:37:00,82.6,58.5,29.81,WSW,253,3.5,3.5,44,0.00,CLR,CLR,0.00,WeatherDisplay:10.36,2013-08-02 20:37:00,
2013-08-02 16:42:00,82.0,58.6,29.81,West,263,3.5,3.5,45,0.00,CLR,CLR,0.00,WeatherDisplay:10.36,2013-08-02 20:42:00,
2013-08-02 16:47:00,81.2,58.5,29.81,SSW,210,2.0,2.0,46,0.00,CLR,CLR,0.00,WeatherDisplay:10.36,2013-08-02 20:47:00,
2013-08-02 16:52:00,80.9,58.2,29.81,SW,233,3.5,3.5,46,0.00,CLR,CLR,0.00,WeatherDisplay:10.36,2013-08-02 20:52:00,
2013-08-02 16:58:00,80.5,58.4,29.81,SW,215,3.0,3.0,47,0.00,CLR,CLR,0.00,WeatherDisplay:10.36,2013-08-02 20:58:00,
2013-08-02 17:03:00,80.3,58.8,29.81,WSW,250,4.0,4.0,48,0.00,CLR,CLR,0.00,WeatherDisplay:10.36,2013-08-02 21:03:00,
2013-08-02 17:08:00,80.3,58.8,29.81,SSW,202,4.0,4.0,48,0.00,CLR,CLR,0.00,WeatherDisplay:10.36,2013-08-02 21:08:00,
2013-08-02 17:13:00,80.7,59.2,29.81,WSW,238,3.5,3.5,48,0.00,CLR,CLR,0.00,WeatherDisplay:10.36,2013-08-02 21:13:00,
2013-08-02 17:18:00,80.7,60.3,29.81,WSW,256,3.5,3.5,50,0.00,CLR,CLR,0.00,WeatherDisplay:10.36,2013-08-02 21:18:00,
2013-08-02 17:23:00,80.7,60.3,29.81,WSW,238,1.2,1.2,50,0.00,CLR,CLR,0.00,WeatherDisplay:10.36,2013-08-02 21:23:00,
2013-08-02 17:29:00,80.7,60.3,29.81,SE,127,1.2,0.0,50,0.00,CLR,CLR,0.00,WeatherDisplay:10.36,2013-08-02 21:29:00,
2013-08-02 17:34:00,80.5,59.6,29.81,WSW,254,3.5,3.5,49,0.00,CLR,CLR,0.00,WeatherDisplay:10.36,2013-08-02 21:34:00,
2013-08-02 17:39:00,80.3,60.5,29.81,West,261,0.0,1.1,51,0.00,CLR,CLR,0.00,WeatherDisplay:10.36,2013-08-02 21:39:00,
2013-08-02 17:44:00,80.3,60.5,29.81,WSW,253,3.5,3.5,51,0.00,CLR,CLR,0.00,WeatherDisplay:10.36,2013-08-02 21:44:00,
2013-08-02 17:49:00,80.9,59.4,29.81,WSW,252,5.8,5.8,48,0.00,CLR,CLR,0.00,WeatherDisplay:10.36,2013-08-02 21:49:00,
2013-08-02 17:54:00,81.1,59.6,29.80,WSW,243,3.5,3.5,48,0.00,CLR,CLR,0.00,WeatherDisplay:10.36,2013-08-02 21:54:00,
2013-08-02 17:59:00,80.7,60.3,29.80,SW,236,2.3,2.3,50,0.00,CLR,CLR,0.00,WeatherDisplay:10.36,2013-08-02 21:59:00,
2013-08-02 18:04:00,80.3,60.0,29.80,WSW,238,0.0,0.0,50,0.00,CLR,CLR,0.00,WeatherDisplay:10.36,2013-08-02 22:04:00,
2013-08-02 18:10:00,79.9,60.7,29.79,WSW,238,0.0,1.0,52,0.00,CLR,CLR,0.00,WeatherDisplay:10.36,2013-08-02 22:10:00,
2013-08-02 18:15:00,79.6,60.4,29.79,WSW,251,0.0,3.0,52,0.00,CLR,CLR,0.00,WeatherDisplay:10.36,2013-08-02 22:15:00,
2013-08-02 18:20:00,79.3,60.1,29.78,WSW,242,0.0,3.0,52,0.00,CLR,CLR,0.00,WeatherDisplay:10.36,2013-08-02 22:20:00,
2013-08-02 18:25:00,79.0,60.4,29.78,SSW,199,0.0,0.0,53,0.00,CLR,CLR,0.00,WeatherDisplay:10.36,2013-08-02 22:25:00,
2013-08-02 18:30:00,79.0,60.9,29.78,ESE,123,0.0,0.0,54,0.00,CLR,CLR,0.00,WeatherDisplay:10.36,2013-08-02 22:30:00,
2013-08-02 18:35:00,79.0,60.4,29.78,WSW,255,0.0,0.0,53,0.00,CLR,CLR,0.00,WeatherDisplay:10.36,2013-08-02 22:35:00,
2013-08-02 18:41:00,79.2,60.1,29.79,WSW,258,3.5,3.5,52,0.00,CLR,CLR,0.00,WeatherDisplay:10.36,2013-08-02 22:41:00,
2013-08-02 18:46:00,79.4,59.7,29.80,West,259,3.0,3.0,51,0.00,CLR,CLR,0.00,WeatherDisplay:10.36,2013-08-02 22:46:00,
2013-08-02 18:51:00,79.2,60.1,29.80,WSW,242,0.0,0.0,52,0.00,CLR,CLR,0.00,WeatherDisplay:10.36,2013-08-02 22:51:00,
2013-08-02 18:56:00,79.2,60.1,29.80,WSW,245,3.5,3.5,52,0.00,CLR,CLR,0.00,WeatherDisplay:10.36,2013-08-02 22:56:00,
2013-08-02 19:01:00,78.8,60.7,29.80,SW,236,1.0,0.0,54,0.00,CLR,CLR,0.00,WeatherDisplay:10.36,2013-08-02 23:01:00,
2013-08-02 19:07:00,78.6,60.6,29.81,WSW,238,0.0,0.0,54,0.00,CLR,CLR,0.00,WeatherDisplay:10.36,2013-08-02 23:07:00,
2013-08-02 19:12:00,78.3,60.3,29.81,SSW,212,3.0,3.0,54,0.00,CLR,CLR,0.00,WeatherDisplay:10.36,2013-08-02 23:12:00,
2013-08-02 19:17:00,78.1,60.6,29.81,West,273,1.2,0.0,55,0.00,CLR,CLR,0.00,WeatherDisplay:10.36,2013-08-02 23:17:00,
2013-08-02 19:22:00,77.9,60.4,29.81,West,273,0.0,0.0,55,0.00,CLR,CLR,0.00,WeatherDisplay:10.36,2013-08-02 23:22:00,
2013-08-02 19:27:00,77.7,60.2,29.81,West,272,0.0,0.0,55,0.00,CLR,CLR,0.00,WeatherDisplay:10.36,2013-08-02 23:27:00,
2013-08-02 19:32:00,77.7,60.2,29.81,West,272,1.2,0.0,55,0.00,CLR,CLR,0.00,WeatherDisplay:10.36,2013-08-02 23:32:00,
2013-08-02 19:37:00,77.6,60.7,29.81,West,273,0.0,0.0,56,0.00,CLR,CLR,0.00,WeatherDisplay:10.36,2013-08-02 23:37:00,
2013-08-02 19:43:00,77.4,60.0,29.81,WSW,257,0.0,0.0,55,0.00,CLR,CLR,0.00,WeatherDisplay:10.36,2013-08-02 23:43:00,
2013-08-02 19:48:00,77.4,60.5,29.81,WSW,255,0.0,0.0,56,0.00,CLR,CLR,0.00,WeatherDisplay:10.36,2013-08-02 23:48:00,
2013-08-02 19:53:00,77.2,60.3,29.81,WSW,255,0.0,0.0,56,0.00,CLR,CLR,0.00,WeatherDisplay:10.36,2013-08-02 23:53:00,
2013-08-02 19:58:00,77.2,61.8,29.81,WSW,255,0.0,0.0,59,0.00,CLR,CLR,0.00,WeatherDisplay:10.36,2013-08-02 23:58:00,
2013-08-02 20:03:00,77.0,61.1,29.81,WSW,255,0.0,0.0,58,0.00,CLR,CLR,0.00,WeatherDisplay:10.36,2013-08-03 00:03:00,
2013-08-02 20:08:00,76.8,60.9,29.81,WSW,255,1.2,0.0,58,0.00,CLR,CLR,0.00,WeatherDisplay:10.36,2013-08-03 00:08:00,
2013-08-02 20:13:00,76.7,60.3,29.81,WSW,255,1.2,1.2,57,0.00,CLR,CLR,0.00,WeatherDisplay:10.36,2013-08-03 00:13:00,
2013-08-02 20:18:00,76.7,60.8,29.81,WSW,255,0.0,0.0,58,0.00,CLR,CLR,0.00,WeatherDisplay:10.36,2013-08-03 00:18:00,
2013-08-02 20:23:00,76.5,60.6,29.82,WSW,255,1.2,0.0,58,0.00,CLR,CLR,0.00,WeatherDisplay:10.36,2013-08-03 00:23:00,
2013-08-02 20:29:00,76.5,61.6,29.82,WSW,255,0.0,0.0,60,0.00,CLR,CLR,0.00,WeatherDisplay:10.36,2013-08-03 00:29:00,
2013-08-02 20:34:00,76.3,61.4,29.82,WSW,255,0.0,0.0,60,0.00,CLR,CLR,0.00,WeatherDisplay:10.36,2013-08-03 00:34:00,
2013-08-02 20:39:00,76.0,61.6,29.83,WSW,251,1.2,0.0,61,0.00,CLR,CLR,0.00,WeatherDisplay:10.36,2013-08-03 00:39:00,
2013-08-02 20:44:00,75.8,61.4,29.83,WSW,251,0.0,0.0,61,0.00,CLR,CLR,0.00,WeatherDisplay:10.36,2013-08-03 00:44:00,
2013-08-02 20:49:00,75.6,61.7,29.83,WSW,251,0.0,0.0,62,0.00,CLR,CLR,0.00,WeatherDisplay:10.36,2013-08-03 00:49:00,
2013-08-02 20:54:00,75.4,61.5,29.83,WSW,251,0.0,0.0,62,0.00,CLR,CLR,0.00,WeatherDisplay:10.36,2013-08-03 00:54:00,
2013-08-02 20:59:00,75.4,61.9,29.83,WSW,251,0.0,0.0,63,0.00,CLR,CLR,0.00,WeatherDisplay:10.36,2013-08-03 00:59:00,
2013-08-02 21:05:00,75.3,61.8,29.83,WSW,251,0.0,0.0,63,0.00,CLR,CLR,0.00,WeatherDisplay:10.36,2013-08-03 01:05:00,
2013-08-02 21:10:00,75.1,62.1,29.83,WSW,251,0.0,0.0,64,0.00,CLR,CLR,0.00,WeatherDisplay:10.36,2013-08-03 01:10:00,
2013-08-02 21:15:00,74.9,61.9,29.83,WSW,251,0.0,0.0,64,0.00,CLR,CLR,0.00,WeatherDisplay:10.36,2013-08-03 01:15:00,
2013-08-02 21:20:00,74.7,61.7,29.83,WSW,251,0.0,0.0,64,0.00,CLR,CLR,0.00,WeatherDisplay:10.36,2013-08-03 01:20:00,
2013-08-02 21:25:00,74.6,62.1,29.84,WSW,251,0.0,0.0,65,0.00,CLR,CLR,0.00,WeatherDisplay:10.36,2013-08-03 01:25:00,
2013-08-02 21:30:00,74.2,61.7,29.84,WSW,251,0.0,0.0,65,0.00,CLR,CLR,0.00,WeatherDisplay:10.36,2013-08-03 01:30:00,
2013-08-02 21:35:00,73.9,61.9,29.84,WSW,251,0.0,0.0,66,0.00,CLR,CLR,0.00,WeatherDisplay:10.36,2013-08-03 01:35:00,
2013-08-02 21:40:00,73.7,61.6,29.84,WSW,251,0.0,0.0,66,0.00,CLR,CLR,0.00,WeatherDisplay:10.36,2013-08-03 01:40:00,
2013-08-02 21:45:00,73.3,61.7,29.84,WSW,251,0.0,0.0,67,0.00,CLR,CLR,0.00,WeatherDisplay:10.36,2013-08-03 01:45:00,
2013-08-02 21:50:00,73.2,62.0,29.84,WSW,251,0.0,0.0,68,0.00,CLR,CLR,0.00,WeatherDisplay:10.36,2013-08-03 01:50:00,
2013-08-02 21:55:00,73.0,61.8,29.84,WSW,251,0.0,0.0,68,0.00,CLR,CLR,0.00,WeatherDisplay:10.36,2013-08-03 01:55:00,
2013-08-02 22:01:00,72.8,61.6,29.84,WSW,251,0.0,0.0,68,0.00,CLR,CLR,0.00,WeatherDisplay:10.36,2013-08-03 02:01:00,
2013-08-02 22:06:00,72.7,61.5,29.84,WSW,251,0.0,0.0,68,0.00,CLR,CLR,0.00,WeatherDisplay:10.36,2013-08-03 02:06:00,
2013-08-02 22:11:00,72.5,61.7,29.84,WSW,251,0.0,0.0,69,0.00,CLR,CLR,0.00,WeatherDisplay:10.36,2013-08-03 02:11:00,
2013-08-02 22:16:00,72.3,62.0,29.84,WSW,251,0.0,0.0,70,0.00,CLR,CLR,0.00,WeatherDisplay:10.36,2013-08-03 02:16:00,
2013-08-02 22:21:00,72.1,61.8,29.84,WSW,251,0.0,0.0,70,0.00,CLR,CLR,0.00,WeatherDisplay:10.36,2013-08-03 02:21:00,
2013-08-02 22:26:00,71.8,61.5,29.84,WSW,251,0.0,0.0,70,0.00,CLR,CLR,0.00,WeatherDisplay:10.36,2013-08-03 02:26:00,
2013-08-02 22:31:00,71.8,61.5,29.85,WSW,251,0.0,0.0,70,0.00,CLR,CLR,0.00,WeatherDisplay:10.36,2013-08-03 02:31:00,
2013-08-02 22:36:00,71.6,61.3,29.85,WSW,251,0.0,0.0,70,0.00,CLR,CLR,0.00,WeatherDisplay:10.36,2013-08-03 02:36:00,
2013-08-02 22:41:00,71.5,62.0,29.85,WSW,251,0.0,0.0,72,0.00,CLR,CLR,0.00,WeatherDisplay:10.36,2013-08-03 02:41:00,
2013-08-02 22:46:00,71.3,62.2,29.85,WSW,251,0.0,0.0,73,0.00,CLR,CLR,0.00,WeatherDisplay:10.36,2013-08-03 02:46:00,
2013-08-02 22:52:00,71.1,62.4,29.85,WSW,251,0.0,0.0,74,0.00,CLR,CLR,0.00,WeatherDisplay:10.36,2013-08-03 02:52:00,
2013-08-02 22:57:00,70.9,61.8,29.85,WSW,251,0.0,0.0,73,0.00,CLR,CLR,0.00,WeatherDisplay:10.36,2013-08-03 02:57:00,
2013-08-02 23:02:00,70.8,61.7,29.85,WSW,251,0.0,0.0,73,0.00,CLR,CLR,0.00,WeatherDisplay:10.36,2013-08-03 03:02:00,
2013-08-02 23:07:00,70.6,61.9,29.85,WSW,251,0.0,0.0,74,0.00,CLR,CLR,0.00,WeatherDisplay:10.36,2013-08-03 03:07:00,
2013-08-02 23:12:00,70.4,62.1,29.85,WSW,251,0.0,0.0,75,0.00,CLR,CLR,0.00,WeatherDisplay:10.36,2013-08-03 03:12:00,
2013-08-02 23:17:00,70.1,61.8,29.85,WSW,251,0.0,0.0,75,0.00,CLR,CLR,0.00,WeatherDisplay:10.36,2013-08-03 03:17:00,
2013-08-02 23:22:00,69.9,61.2,29.85,WSW,251,0.0,0.0,74,0.00,CLR,CLR,0.00,WeatherDisplay:10.36,2013-08-03 03:22:00,
2013-08-02 23:27:00,69.8,61.9,29.85,WSW,251,0.0,0.0,76,0.00,CLR,CLR,0.00,WeatherDisplay:10.36,2013-08-03 03:27:00,
2013-08-02 23:32:00,69.6,61.3,29.85,WSW,251,0.0,0.0,75,0.00,CLR,CLR,0.00,WeatherDisplay:10.36,2013-08-03 03:32:00,
2013-08-02 23:37:00,69.4,60.8,29.85,WSW,251,0.0,0.0,74,0.00,CLR,CLR,0.00,WeatherDisplay:10.36,2013-08-03 03:37:00,
2013-08-02 23:42:00,69.4,60.8,29.85,WSW,251,0.0,0.0,74,0.00,CLR,CLR,0.00,WeatherDisplay:10.36,2013-08-03 03:42:00,
2013-08-02 23:47:00,69.3,60.7,29.85,WSW,251,0.0,0.0,74,0.00,CLR,CLR,0.00,WeatherDisplay:10.36,2013-08-03 03:47:00,
2013-08-02 23:53:00,69.1,60.8,29.85,WSW,251,0.0,0.0,75,0.00,CLR,CLR,0.00,WeatherDisplay:10.36,2013-08-03 03:53:00,
2013-08-02 23:58:00,69.1,60.1,29.85,WSW,251,0.0,0.0,73,0.00,CLR,CLR,0.00,WeatherDisplay:10.36,2013-08-03 03:58:00,